This demonstration page uses our WeatherBlox Daily Observations layout. Learn more.

Left ArrowRight Arrow

Hourly Observations for May 29, 2019

Temp ( °F °C ) Dew Point ( °F °C ) Humidity (%) Winds ( mph kmh ) Pressure ( in mb ) Visibility ( mi km ) Precip ( " mm )
12:52 am 00:52 Clear 72 22.2 65 18.3 79 79 S 6 9 29.70 1006 10 16 0.00 0.00
1:52 am 01:52 Clear 73 22.8 66 18.9 79 79 SSE 7 11 29.67 1005 10 16 0.00 0.00
2:52 am 02:52 Mostly Clear 71 21.7 65 18.3 81 81 S 5 7 29.68 1005 10 16 0.00 0.00
3:52 am 03:52 Mostly Clear 72 22.2 66 18.9 82 82 SSE 9 15 29.69 1005 10 16 0.00 0.00
4:52 am 04:52 Mostly Clear 72 22.2 66 18.9 82 82 SSE 12 19 29.70 1006 10 16 0.00 0.03
5:52 am 05:52 Partly Cloudy 71 21.7 67 19.4 87 87 S 12 19 29.71 1006 10 16 0.00 0.00
6:52 am 06:52 Mostly Sunny 71 21.7 67 19.4 87 87 S 9 15 29.72 1007 10 16 0.00 0.00
7:52 am 07:52 Sunny 74 23.3 68 20 82 82 SSW 12 19 29.73 1007 10 16 0.00 0.00
8:52 am 08:52 Partly Cloudy 76 24.4 68 20 77 77 WSW 14 22 29.75 1007 10 16 0.00 0.00
9:00 am 09:00 Mostly Cloudy 76 24.4 68 20 77 77 SW 15 24 29.72 1007 10 16 0.00 0.00
9:13 am 09:13 Partly Cloudy 77 25 69 20.6 77 77 WSW 15 24 29.72 1006 10 16 0.00 0.00
9:52 am 09:52 Mostly Sunny 79 26.1 69 20.6 72 72 SW 16 26 29.75 1007 10 16 0.00 0.00
10:52 am 10:52 Mostly Cloudy 78 25.6 69 20.6 74 74 SW 13 20 29.76 1008 10 16 0.00 0.00
11:26 am 11:26 Partly Cloudy 78 25.6 69 20.6 74 74 SW 10 17 29.73 1007 10 16 0.00 0.00
11:52 am 11:52 Partly Cloudy 77 25 69 20.6 77 77 SW 12 19 29.76 1008 10 16 0.00 0.00
12:52 pm 12:52 Mostly Cloudy with Light Rain 75 23.9 70 21.1 84 84 S 14 22 29.75 1008 10 16 0.00 0.03
1:26 pm 13:26 Cloudy with Nearby Thunderstorms 72 22.2 63 17.2 73 73 W 18 30 29.77 1008 10 16 0.01 0.25
1:52 pm 13:52 Cloudy with Thunderstorms 68 20 58 14.4 70 70 W 17 28 29.79 1009 10 16 0.03 0.76
2:09 pm 14:09 Cloudy with Rain 67 19.4 58 14.4 73 73 W 8 13 29.79 1009 8 13 0.02 0.51
2:52 pm 14:52 Cloudy with Light Rain 67 19.4 60 15.6 79 79 S 9 15 29.78 1009 10 16 0.05 1.27
3:52 pm 15:52 Cloudy with Rain 65 18.3 59 15 81 81 SW 10 17 29.84 1010 7 11 0.09 2.29
4:52 pm 16:52 Cloudy with Light Rain 65 18.3 61 16.1 87 87 SW 7 11 29.84 1011 10 16 0.08 2.03
5:52 pm 17:52 Cloudy with Light Rain 66 18.9 62 16.7 87 87 SE 9 15 29.80 1009 10 16 0.01 0.25
6:52 pm 18:52 Cloudy with Light Rain 65 18.3 61 16.1 87 87 SSE 12 19 29.77 1008 10 16 0.00 0.03
7:52 pm 19:52 Mostly Sunny 64 17.8 60 15.6 87 87 S 8 13 29.77 1008 10 16 0.00 0.03
8:52 pm 20:52 Mostly Cloudy 63 17.2 60 15.6 90 90 S 10 17 29.76 1008 10 16 0.00 0.00
9:44 pm 21:44 Mostly Cloudy 63 17.2 60 15.6 90 90 WNW 6 9 29.84 1010 10 16 0.00 0.00
9:52 pm 21:52 Cloudy 63 17.2 60 15.6 90 90 W 5 7 29.83 1010 10 16 0.00 0.00
10:52 pm 22:52 Cloudy 64 17.8 61 16.1 90 90 WSW 5 7 29.84 1011 10 16 0.00 0.00
11:52 pm 23:52 Cloudy 63 17.2 60 15.6 90 90 SSW 6 9 29.85 1011 10 16 0.00 0.00

Powered by AerisWeather